Data supplied by UK-AIR on 5/4/2008
All Data GMT hour ending 
Status: R =Ratified P=Provisional,P*=As supplied
,,Sheffield Tinsley,,,,,,,,,,,,,,,,,,,,,,,
Date,time,"Carbon monoxide",status,unit,"Nitric oxide",status,unit,"Nitrogen dioxide",status,unit,"Nitrogen oxides as nitrogen dioxide",status,unit
 
01-01-1992,01:00,,,,,,,,,,,,
01-01-1992,02:00,0.3,R,mgm-3,9,R,ugm-3,15,R,ugm-3,29,R,ugm-3
01-01-1992,03:00,0.3,R,mgm-3,6,R,ugm-3,10,R,ugm-3,19,R,ugm-3
01-01-1992,04:00,0.3,R,mgm-3,5,R,ugm-3,10,R,ugm-3,17,R,ugm-3
01-01-1992,05:00,0.3,R,mgm-3,4,R,ugm-3,10,R,ugm-3,15,R,ugm-3
01-01-1992,06:00,0.3,R,mgm-3,5,R,ugm-3,8,R,ugm-3,15,R,ugm-3
01-01-1992,07:00,0.3,R,mgm-3,5,R,ugm-3,6,R,ugm-3,13,R,ugm-3
01-01-1992,08:00,0.3,R,mgm-3,6,R,ugm-3,13,R,ugm-3,23,R,ugm-3
01-01-1992,09:00,0.3,R,mgm-3,8,R,ugm-3,10,R,ugm-3,21,R,ugm-3
01-01-1992,10:00,0.3,R,mgm-3,11,R,ugm-3,13,R,ugm-3,31,R,ugm-3
01-01-1992,11:00,0.6,R,mgm-3,14,R,ugm-3,15,R,ugm-3,36,R,ugm-3
01-01-1992,12:00,0.7,R,mgm-3,21,R,ugm-3,19,R,ugm-3,52,R,ugm-3
01-01-1992,13:00,0.8,R,mgm-3,31,R,ugm-3,21,R,ugm-3,69,R,ugm-3
01-01-1992,14:00,0.8,R,mgm-3,38,R,ugm-3,29,R,ugm-3,86,R,ugm-3
01-01-1992,15:00,0.8,R,mgm-3,39,R,ugm-3,31,R,ugm-3,90,R,ugm-3
01-01-1992,16:00,0.7,R,mgm-3,45,R,ugm-3,34,R,ugm-3,103,R,ugm-3
01-01-1992,17:00,0.6,R,mgm-3,34,R,ugm-3,32,R,ugm-3,84,R,ugm-3
01-01-1992,18:00,0.7,R,mgm-3,45,R,ugm-3,34,R,ugm-3,103,R,ugm-3
01-01-1992,19:00,0.6,R,mgm-3,25,R,ugm-3,23,R,ugm-3,61,R,ugm-3
01-01-1992,20:00,0.7,R,mgm-3,20,R,ugm-3,21,R,ugm-3,52,R,ugm-3
01-01-1992,21:00,0.5,R,mgm-3,16,R,ugm-3,17,R,ugm-3,42,R,ugm-3
01-01-1992,22:00,0.5,R,mgm-3,15,R,ugm-3,19,R,ugm-3,42,R,ugm-3
01-01-1992,23:00,0.5,R,mgm-3,11,R,ugm-3,13,R,ugm-3,31,R,ugm-3
01-01-1992,24:00,0.6,R,mgm-3,10,R,ugm-3,17,R,ugm-3,32,R,ugm-3
02-01-1992,01:00,0.6,R,mgm-3,10,R,ugm-3,11,R,ugm-3,27,R,ugm-3
02-01-1992,02:00,0.6,R,mgm-3,8,R,ugm-3,10,R,ugm-3,21,R,ugm-3
02-01-1992,03:00,0.6,R,mgm-3,8,R,ugm-3,11,R,ugm-3,23,R,ugm-3
02-01-1992,04:00,0.5,R,mgm-3,9,R,ugm-3,10,R,ugm-3,23,R,ugm-3
02-01-1992,05:00,0.6,R,mgm-3,10,R,ugm-3,10,R,ugm-3,25,R,ugm-3
02-01-1992,06:00,0.6,R,mgm-3,18,R,ugm-3,19,R,ugm-3,46,R,ugm-3
02-01-1992,07:00,0.6,R,mgm-3,35,R,ugm-3,40,R,ugm-3,94,R,ugm-3
02-01-1992,08:00,0.7,R,mgm-3,44,R,ugm-3,42,R,ugm-3,109,R,ugm-3
02-01-1992,09:00,0.6,R,mgm-3,70,R,ugm-3,63,R,ugm-3,170,R,ugm-3
02-01-1992,10:00,0.5,R,mgm-3,80,R,ugm-3,69,R,ugm-3,191,R,ugm-3
02-01-1992,11:00,0.6,R,mgm-3,85,R,ugm-3,69,R,ugm-3,199,R,ugm-3
02-01-1992,12:00,0.7,R,mgm-3,84,R,ugm-3,69,R,ugm-3,197,R,ugm-3
02-01-1992,13:00,0.6,R,mgm-3,75,R,ugm-3,63,R,ugm-3,178,R,ugm-3
02-01-1992,14:00,0.7,R,mgm-3,71,R,ugm-3,67,R,ugm-3,176,R,ugm-3
02-01-1992,15:00,0.7,R,mgm-3,74,R,ugm-3,74,R,ugm-3,187,R,ugm-3
02-01-1992,16:00,0.8,R,mgm-3,78,R,ugm-3,82,R,ugm-3,201,R,ugm-3
02-01-1992,17:00,0.7,R,mgm-3,68,R,ugm-3,82,R,ugm-3,185,R,ugm-3
02-01-1992,18:00,0.7,R,mgm-3,66,R,ugm-3,88,R,ugm-3,189,R,ugm-3
02-01-1992,19:00,0.6,R,mgm-3,56,R,ugm-3,76,R,ugm-3,162,R,ugm-3
02-01-1992,20:00,0.5,R,mgm-3,43,R,ugm-3,71,R,ugm-3,136,R,ugm-3
02-01-1992,21:00,0.5,R,mgm-3,40,R,ugm-3,73,R,ugm-3,134,R,ugm-3
02-01-1992,22:00,0.5,R,mgm-3,38,R,ugm-3,73,R,ugm-3,130,R,ugm-3
02-01-1992,23:00,0.3,R,mgm-3,39,R,ugm-3,57,R,ugm-3,117,R,ugm-3
02-01-1992,24:00,0.3,R,mgm-3,40,R,ugm-3,50,R,ugm-3,111,R,ugm-3
03-01-1992,01:00,0.3,R,mgm-3,36,R,ugm-3,52,R,ugm-3,107,R,ugm-3
03-01-1992,02:00,0.3,R,mgm-3,23,R,ugm-3,57,R,ugm-3,92,R,ugm-3
03-01-1992,03:00,0.3,R,mgm-3,23,R,ugm-3,57,R,ugm-3,92,R,ugm-3
03-01-1992,04:00,0.3,R,mgm-3,33,R,ugm-3,55,R,ugm-3,105,R,ugm-3
03-01-1992,05:00,0.3,R,mgm-3,31,R,ugm-3,46,R,ugm-3,94,R,ugm-3
03-01-1992,06:00,0.3,R,mgm-3,41,R,ugm-3,50,R,ugm-3,113,R,ugm-3
03-01-1992,07:00,0.3,R,mgm-3,50,R,ugm-3,55,R,ugm-3,132,R,ugm-3
03-01-1992,08:00,0.5,R,mgm-3,66,R,ugm-3,52,R,ugm-3,153,R,ugm-3
03-01-1992,09:00,0.5,R,mgm-3,68,R,ugm-3,48,R,ugm-3,151,R,ugm-3
03-01-1992,10:00,0.5,R,mgm-3,73,R,ugm-3,55,R,ugm-3,166,R,ugm-3
03-01-1992,11:00,0.5,R,mgm-3,63,R,ugm-3,50,R,ugm-3,145,R,ugm-3
03-01-1992,12:00,0.5,R,mgm-3,48,R,ugm-3,44,R,ugm-3,117,R,ugm-3
03-01-1992,13:00,0.5,R,mgm-3,48,R,ugm-3,42,R,ugm-3,115,R,ugm-3
03-01-1992,14:00,0.5,R,mgm-3,50,R,ugm-3,46,R,ugm-3,122,R,ugm-3
03-01-1992,15:00,0.5,R,mgm-3,49,R,ugm-3,38,R,ugm-3,113,R,ugm-3
03-01-1992,16:00,0.6,R,mgm-3,53,R,ugm-3,36,R,ugm-3,117,R,ugm-3
03-01-1992,17:00,0.6,R,mgm-3,51,R,ugm-3,44,R,ugm-3,122,R,ugm-3
03-01-1992,18:00,0.6,R,mgm-3,45,R,ugm-3,36,R,ugm-3,105,R,ugm-3
03-01-1992,19:00,0.5,R,mgm-3,38,R,ugm-3,38,R,ugm-3,96,R,ugm-3
03-01-1992,20:00,0.6,R,mgm-3,34,R,ugm-3,46,R,ugm-3,97,R,ugm-3
03-01-1992,21:00,0.8,R,mgm-3,46,R,ugm-3,50,R,ugm-3,120,R,ugm-3
03-01-1992,22:00,0.6,R,mgm-3,18,R,ugm-3,27,R,ugm-3,53,R,ugm-3
03-01-1992,23:00,0.5,R,mgm-3,16,R,ugm-3,27,R,ugm-3,52,R,ugm-3
03-01-1992,24:00,0.5,R,mgm-3,15,R,ugm-3,23,R,ugm-3,46,R,ugm-3
04-01-1992,01:00,0.5,R,mgm-3,14,R,ugm-3,27,R,ugm-3,48,R,ugm-3
04-01-1992,02:00,0.3,R,mgm-3,11,R,ugm-3,19,R,ugm-3,36,R,ugm-3
04-01-1992,03:00,0.3,R,mgm-3,10,R,ugm-3,19,R,ugm-3,34,R,ugm-3
04-01-1992,04:00,0.3,R,mgm-3,8,R,ugm-3,13,R,ugm-3,25,R,ugm-3
04-01-1992,05:00,0.3,R,mgm-3,9,R,ugm-3,17,R,ugm-3,31,R,ugm-3
04-01-1992,06:00,0.3,R,mgm-3,13,R,ugm-3,21,R,ugm-3,40,R,ugm-3
04-01-1992,07:00,0.5,R,mgm-3,18,R,ugm-3,23,R,ugm-3,50,R,ugm-3
04-01-1992,08:00,0.6,R,mgm-3,29,R,ugm-3,42,R,ugm-3,86,R,ugm-3
04-01-1992,09:00,0.6,R,mgm-3,38,R,ugm-3,46,R,ugm-3,103,R,ugm-3
04-01-1992,10:00,0.8,R,mgm-3,61,R,ugm-3,53,R,ugm-3,147,R,ugm-3
04-01-1992,11:00,0.9,R,mgm-3,84,R,ugm-3,59,R,ugm-3,187,R,ugm-3
04-01-1992,12:00,0.8,R,mgm-3,65,R,ugm-3,44,R,ugm-3,143,R,ugm-3
04-01-1992,13:00,0.8,R,mgm-3,61,R,ugm-3,44,R,ugm-3,138,R,ugm-3
04-01-1992,14:00,0.8,R,mgm-3,54,R,ugm-3,40,R,ugm-3,122,R,ugm-3
04-01-1992,15:00,0.9,R,mgm-3,55,R,ugm-3,44,R,ugm-3,128,R,ugm-3
04-01-1992,16:00,1.0,R,mgm-3,88,R,ugm-3,55,R,ugm-3,189,R,ugm-3
04-01-1992,17:00,1.2,R,mgm-3,93,R,ugm-3,55,R,ugm-3,197,R,ugm-3
04-01-1992,18:00,1.2,R,mgm-3,154,R,ugm-3,82,R,ugm-3,317,R,ugm-3
04-01-1992,19:00,1.2,R,mgm-3,106,R,ugm-3,69,R,ugm-3,231,R,ugm-3
04-01-1992,20:00,0.9,R,mgm-3,128,R,ugm-3,73,R,ugm-3,267,R,ugm-3
04-01-1992,21:00,1.0,R,mgm-3,103,R,ugm-3,86,R,ugm-3,243,R,ugm-3
04-01-1992,22:00,0.9,R,mgm-3,83,R,ugm-3,92,R,ugm-3,218,R,ugm-3
04-01-1992,23:00,0.9,R,mgm-3,48,R,ugm-3,71,R,ugm-3,143,R,ugm-3
04-01-1992,24:00,0.8,R,mgm-3,105,R,ugm-3,94,R,ugm-3,254,R,ugm-3
05-01-1992,01:00,0.7,R,mgm-3,75,R,ugm-3,57,R,ugm-3,172,R,ugm-3
05-01-1992,02:00,0.7,R,mgm-3,15,R,ugm-3,38,R,ugm-3,61,R,ugm-3
05-01-1992,03:00,0.7,R,mgm-3,19,R,ugm-3,36,R,ugm-3,65,R,ugm-3
05-01-1992,04:00,0.8,R,mgm-3,19,R,ugm-3,42,R,ugm-3,71,R,ugm-3
05-01-1992,05:00,0.8,R,mgm-3,10,R,ugm-3,38,R,ugm-3,53,R,ugm-3
05-01-1992,06:00,0.8,R,mgm-3,10,R,ugm-3,42,R,ugm-3,57,R,ugm-3
05-01-1992,07:00,0.9,R,mgm-3,28,R,ugm-3,48,R,ugm-3,90,R,ugm-3
05-01-1992,08:00,0.8,R,mgm-3,18,R,ugm-3,52,R,ugm-3,78,R,ugm-3
05-01-1992,09:00,0.8,R,mgm-3,35,R,ugm-3,48,R,ugm-3,101,R,ugm-3
05-01-1992,10:00,0.7,R,mgm-3,41,R,ugm-3,46,R,ugm-3,109,R,ugm-3
05-01-1992,11:00,1.0,R,mgm-3,89,R,ugm-3,38,R,ugm-3,174,R,ugm-3
05-01-1992,12:00,0.9,R,mgm-3,79,R,ugm-3,40,R,ugm-3,160,R,ugm-3
05-01-1992,13:00,0.6,R,mgm-3,101,R,ugm-3,67,R,ugm-3,222,R,ugm-3
05-01-1992,14:00,0.7,R,mgm-3,100,R,ugm-3,94,R,ugm-3,246,R,ugm-3
05-01-1992,15:00,0.8,R,mgm-3,109,R,ugm-3,94,R,ugm-3,260,R,ugm-3
05-01-1992,16:00,0.9,R,mgm-3,119,R,ugm-3,105,R,ugm-3,287,R,ugm-3
05-01-1992,17:00,0.9,R,mgm-3,114,R,ugm-3,120,R,ugm-3,294,R,ugm-3
05-01-1992,18:00,0.9,R,mgm-3,105,R,ugm-3,109,R,ugm-3,269,R,ugm-3
05-01-1992,19:00,0.9,R,mgm-3,55,R,ugm-3,48,R,ugm-3,132,R,ugm-3
05-01-1992,20:00,0.9,R,mgm-3,96,R,ugm-3,109,R,ugm-3,256,R,ugm-3
05-01-1992,21:00,0.9,R,mgm-3,103,R,ugm-3,118,R,ugm-3,275,R,ugm-3
05-01-1992,22:00,0.7,R,mgm-3,95,R,ugm-3,139,R,ugm-3,285,R,ugm-3
05-01-1992,23:00,0.8,R,mgm-3,68,R,ugm-3,105,R,ugm-3,208,R,ugm-3
05-01-1992,24:00,0.8,R,mgm-3,26,R,ugm-3,40,R,ugm-3,80,R,ugm-3
06-01-1992,01:00,0.8,R,mgm-3,41,R,ugm-3,86,R,ugm-3,149,R,ugm-3
06-01-1992,02:00,0.6,R,mgm-3,9,R,ugm-3,17,R,ugm-3,31,R,ugm-3
06-01-1992,03:00,0.5,R,mgm-3,6,R,ugm-3,13,R,ugm-3,23,R,ugm-3
06-01-1992,04:00,0.3,R,mgm-3,9,R,ugm-3,13,R,ugm-3,27,R,ugm-3
06-01-1992,05:00,0.3,R,mgm-3,11,R,ugm-3,17,R,ugm-3,34,R,ugm-3
06-01-1992,06:00,0.7,R,mgm-3,43,R,ugm-3,65,R,ugm-3,130,R,ugm-3
06-01-1992,07:00,0.7,R,mgm-3,98,R,ugm-3,117,R,ugm-3,265,R,ugm-3
06-01-1992,08:00,1.0,R,mgm-3,104,R,ugm-3,78,R,ugm-3,237,R,ugm-3
06-01-1992,09:00,1.0,R,mgm-3,133,R,ugm-3,115,R,ugm-3,317,R,ugm-3
06-01-1992,10:00,0.7,R,mgm-3,115,R,ugm-3,136,R,ugm-3,311,R,ugm-3
06-01-1992,11:00,0.6,R,mgm-3,90,R,ugm-3,109,R,ugm-3,246,R,ugm-3
06-01-1992,12:00,0.7,R,mgm-3,71,R,ugm-3,82,R,ugm-3,191,R,ugm-3
06-01-1992,13:00,0.8,R,mgm-3,63,R,ugm-3,59,R,ugm-3,155,R,ugm-3
06-01-1992,14:00,0.8,R,mgm-3,64,R,ugm-3,59,R,ugm-3,157,R,ugm-3
06-01-1992,15:00,0.9,R,mgm-3,63,R,ugm-3,55,R,ugm-3,151,R,ugm-3
06-01-1992,16:00,0.8,R,mgm-3,69,R,ugm-3,76,R,ugm-3,181,R,ugm-3
06-01-1992,17:00,1.0,R,mgm-3,78,R,ugm-3,69,R,ugm-3,187,R,ugm-3
06-01-1992,18:00,1.0,R,mgm-3,80,R,ugm-3,84,R,ugm-3,206,R,ugm-3
06-01-1992,19:00,0.7,R,mgm-3,68,R,ugm-3,88,R,ugm-3,191,R,ugm-3
06-01-1992,20:00,0.7,R,mgm-3,44,R,ugm-3,74,R,ugm-3,141,R,ugm-3
06-01-1992,21:00,0.6,R,mgm-3,38,R,ugm-3,61,R,ugm-3,118,R,ugm-3
06-01-1992,22:00,0.5,R,mgm-3,46,R,ugm-3,65,R,ugm-3,136,R,ugm-3
06-01-1992,23:00,0.5,R,mgm-3,66,R,ugm-3,78,R,ugm-3,180,R,ugm-3
06-01-1992,24:00,0.5,R,mgm-3,46,R,ugm-3,84,R,ugm-3,155,R,ugm-3
07-01-1992,01:00,0.5,R,mgm-3,41,R,ugm-3,76,R,ugm-3,139,R,ugm-3
07-01-1992,02:00,0.5,R,mgm-3,14,R,ugm-3,38,R,ugm-3,59,R,ugm-3
07-01-1992,03:00,0.5,R,mgm-3,19,R,ugm-3,38,R,ugm-3,67,R,ugm-3
07-01-1992,04:00,0.5,R,mgm-3,54,R,ugm-3,63,R,ugm-3,145,R,ugm-3
07-01-1992,05:00,0.5,R,mgm-3,40,R,ugm-3,63,R,ugm-3,124,R,ugm-3
07-01-1992,06:00,0.6,R,mgm-3,66,R,ugm-3,67,R,ugm-3,168,R,ugm-3
07-01-1992,07:00,0.6,R,mgm-3,120,R,ugm-3,88,R,ugm-3,271,R,ugm-3
07-01-1992,08:00,0.7,R,mgm-3,80,R,ugm-3,65,R,ugm-3,187,R,ugm-3
07-01-1992,09:00,0.7,R,mgm-3,89,R,ugm-3,65,R,ugm-3,201,R,ugm-3
07-01-1992,10:00,0.7,R,mgm-3,116,R,ugm-3,65,R,ugm-3,243,R,ugm-3
07-01-1992,11:00,0.6,R,mgm-3,119,R,ugm-3,67,R,ugm-3,248,R,ugm-3
07-01-1992,12:00,0.7,R,mgm-3,126,R,ugm-3,71,R,ugm-3,264,R,ugm-3
07-01-1992,13:00,0.6,R,mgm-3,116,R,ugm-3,74,R,ugm-3,252,R,ugm-3
07-01-1992,14:00,0.6,R,mgm-3,103,R,ugm-3,65,R,ugm-3,222,R,ugm-3
07-01-1992,15:00,0.6,R,mgm-3,123,R,ugm-3,71,R,ugm-3,258,R,ugm-3
07-01-1992,16:00,0.8,R,mgm-3,125,R,ugm-3,71,R,ugm-3,262,R,ugm-3
07-01-1992,17:00,0.9,R,mgm-3,136,R,ugm-3,76,R,ugm-3,285,R,ugm-3
07-01-1992,18:00,1.0,R,mgm-3,199,R,ugm-3,74,R,ugm-3,378,R,ugm-3
07-01-1992,19:00,1.0,R,mgm-3,173,R,ugm-3,65,R,ugm-3,329,R,ugm-3
07-01-1992,20:00,1.0,R,mgm-3,89,R,ugm-3,69,R,ugm-3,204,R,ugm-3
07-01-1992,21:00,0.8,R,mgm-3,113,R,ugm-3,90,R,ugm-3,262,R,ugm-3
07-01-1992,22:00,0.6,R,mgm-3,56,R,ugm-3,65,R,ugm-3,151,R,ugm-3
07-01-1992,23:00,0.6,R,mgm-3,46,R,ugm-3,55,R,ugm-3,126,R,ugm-3
07-01-1992,24:00,0.6,R,mgm-3,35,R,ugm-3,52,R,ugm-3,105,R,ugm-3
08-01-1992,01:00,0.6,R,mgm-3,29,R,ugm-3,52,R,ugm-3,96,R,ugm-3
08-01-1992,02:00,0.6,R,mgm-3,25,R,ugm-3,40,R,ugm-3,78,R,ugm-3
08-01-1992,03:00,0.6,R,mgm-3,34,R,ugm-3,52,R,ugm-3,103,R,ugm-3
08-01-1992,04:00,0.6,R,mgm-3,26,R,ugm-3,52,R,ugm-3,92,R,ugm-3
08-01-1992,05:00,0.6,R,mgm-3,28,R,ugm-3,48,R,ugm-3,90,R,ugm-3
08-01-1992,06:00,0.6,R,mgm-3,39,R,ugm-3,42,R,ugm-3,101,R,ugm-3
08-01-1992,07:00,0.6,R,mgm-3,95,R,ugm-3,71,R,ugm-3,216,R,ugm-3
08-01-1992,08:00,0.7,R,mgm-3,119,R,ugm-3,80,R,ugm-3,262,R,ugm-3
08-01-1992,09:00,0.7,R,mgm-3,124,R,ugm-3,80,R,ugm-3,269,R,ugm-3
08-01-1992,10:00,0.6,R,mgm-3,95,R,ugm-3,82,R,ugm-3,227,R,ugm-3
08-01-1992,11:00,0.5,R,mgm-3,71,R,ugm-3,69,R,ugm-3,178,R,ugm-3
08-01-1992,12:00,0.6,R,mgm-3,140,R,ugm-3,94,R,ugm-3,308,R,ugm-3
08-01-1992,13:00,0.7,R,mgm-3,176,R,ugm-3,145,R,ugm-3,414,R,ugm-3
08-01-1992,14:00,0.8,R,mgm-3,221,R,ugm-3,174,R,ugm-3,512,R,ugm-3
08-01-1992,15:00,0.9,R,mgm-3,213,R,ugm-3,86,R,ugm-3,411,R,ugm-3
08-01-1992,16:00,1.3,R,mgm-3,225,R,ugm-3,113,R,ugm-3,456,R,ugm-3
08-01-1992,17:00,2.9,R,mgm-3,294,R,ugm-3,73,R,ugm-3,521,R,ugm-3
08-01-1992,18:00,2.3,R,mgm-3,186,R,ugm-3,67,R,ugm-3,351,R,ugm-3
08-01-1992,19:00,1.5,R,mgm-3,83,R,ugm-3,71,R,ugm-3,197,R,ugm-3
08-01-1992,20:00,1.0,R,mgm-3,21,R,ugm-3,67,R,ugm-3,99,R,ugm-3
08-01-1992,21:00,1.0,R,mgm-3,16,R,ugm-3,69,R,ugm-3,94,R,ugm-3
08-01-1992,22:00,0.7,R,mgm-3,9,R,ugm-3,48,R,ugm-3,61,R,ugm-3
08-01-1992,23:00,0.6,R,mgm-3,5,R,ugm-3,31,R,ugm-3,38,R,ugm-3
08-01-1992,24:00,0.5,R,mgm-3,3,R,ugm-3,25,R,ugm-3,29,R,ugm-3
09-01-1992,01:00,0.3,R,mgm-3,5,R,ugm-3,10,R,ugm-3,17,R,ugm-3
09-01-1992,02:00,0.3,R,mgm-3,6,R,ugm-3,23,R,ugm-3,32,R,ugm-3
09-01-1992,03:00,0.3,R,mgm-3,11,R,ugm-3,27,R,ugm-3,44,R,ugm-3
09-01-1992,04:00,0.5,R,mgm-3,8,R,ugm-3,21,R,ugm-3,32,R,ugm-3
09-01-1992,05:00,0.5,R,mgm-3,10,R,ugm-3,27,R,ugm-3,42,R,ugm-3
09-01-1992,06:00,0.5,R,mgm-3,14,R,ugm-3,32,R,ugm-3,53,R,ugm-3
09-01-1992,07:00,0.5,R,mgm-3,15,R,ugm-3,27,R,ugm-3,50,R,ugm-3
09-01-1992,08:00,0.6,R,mgm-3,23,R,ugm-3,38,R,ugm-3,73,R,ugm-3
09-01-1992,09:00,0.6,R,mgm-3,21,R,ugm-3,40,R,ugm-3,73,R,ugm-3
09-01-1992,10:00,0.6,R,mgm-3,29,R,ugm-3,44,R,ugm-3,88,R,ugm-3
09-01-1992,11:00,0.6,R,mgm-3,28,R,ugm-3,40,R,ugm-3,82,R,ugm-3
09-01-1992,12:00,0.6,R,mgm-3,24,R,ugm-3,36,R,ugm-3,73,R,ugm-3
09-01-1992,13:00,0.6,R,mgm-3,20,R,ugm-3,34,R,ugm-3,65,R,ugm-3
09-01-1992,14:00,0.7,R,mgm-3,36,R,ugm-3,48,R,ugm-3,103,R,ugm-3
09-01-1992,15:00,0.6,R,mgm-3,19,R,ugm-3,38,R,ugm-3,67,R,ugm-3
09-01-1992,16:00,0.7,R,mgm-3,24,R,ugm-3,53,R,ugm-3,90,R,ugm-3
09-01-1992,17:00,0.7,R,mgm-3,21,R,ugm-3,50,R,ugm-3,82,R,ugm-3
09-01-1992,18:00,0.8,R,mgm-3,21,R,ugm-3,50,R,ugm-3,82,R,ugm-3
09-01-1992,19:00,0.8,R,mgm-3,23,R,ugm-3,55,R,ugm-3,90,R,ugm-3
09-01-1992,20:00,0.7,R,mgm-3,19,R,ugm-3,53,R,ugm-3,82,R,ugm-3
09-01-1992,21:00,0.8,R,mgm-3,28,R,ugm-3,61,R,ugm-3,103,R,ugm-3
09-01-1992,22:00,0.7,R,mgm-3,18,R,ugm-3,57,R,ugm-3,84,R,ugm-3
09-01-1992,23:00,0.7,R,mgm-3,16,R,ugm-3,53,R,ugm-3,78,R,ugm-3
09-01-1992,24:00,0.7,R,mgm-3,16,R,ugm-3,53,R,ugm-3,78,R,ugm-3
10-01-1992,01:00,0.6,R,mgm-3,9,R,ugm-3,50,R,ugm-3,63,R,ugm-3
10-01-1992,02:00,0.6,R,mgm-3,8,R,ugm-3,53,R,ugm-3,65,R,ugm-3
10-01-1992,03:00,0.6,R,mgm-3,6,R,ugm-3,50,R,ugm-3,59,R,ugm-3
10-01-1992,04:00,0.5,R,mgm-3,4,R,ugm-3,42,R,ugm-3,48,R,ugm-3
10-01-1992,05:00,0.5,R,mgm-3,5,R,ugm-3,34,R,ugm-3,42,R,ugm-3
10-01-1992,06:00,0.5,R,mgm-3,6,R,ugm-3,42,R,ugm-3,52,R,ugm-3
10-01-1992,07:00,0.7,R,mgm-3,30,R,ugm-3,57,R,ugm-3,103,R,ugm-3
10-01-1992,08:00,1.0,R,mgm-3,79,R,ugm-3,63,R,ugm-3,183,R,ugm-3
10-01-1992,09:00,1.3,R,mgm-3,129,R,ugm-3,63,R,ugm-3,260,R,ugm-3
10-01-1992,10:00,1.3,R,mgm-3,188,R,ugm-3,63,R,ugm-3,350,R,ugm-3
10-01-1992,11:00,1.3,R,mgm-3,118,R,ugm-3,65,R,ugm-3,244,R,ugm-3
10-01-1992,12:00,1.2,R,mgm-3,91,R,ugm-3,65,R,ugm-3,204,R,ugm-3
10-01-1992,13:00,1.3,R,mgm-3,80,R,ugm-3,65,R,ugm-3,187,R,ugm-3
10-01-1992,14:00,1.0,R,mgm-3,74,R,ugm-3,69,R,ugm-3,181,R,ugm-3
10-01-1992,15:00,1.2,R,mgm-3,78,R,ugm-3,73,R,ugm-3,191,R,ugm-3
10-01-1992,16:00,1.5,R,mgm-3,116,R,ugm-3,74,R,ugm-3,252,R,ugm-3
10-01-1992,17:00,4.4,R,mgm-3,611,R,ugm-3,73,R,ugm-3,1007,R,ugm-3
10-01-1992,18:00,5.9,R,mgm-3,958,R,ugm-3,67,R,ugm-3,1530,R,ugm-3
10-01-1992,19:00,5.5,R,mgm-3,876,R,ugm-3,67,R,ugm-3,1406,R,ugm-3
10-01-1992,20:00,3.9,R,mgm-3,495,R,ugm-3,73,R,ugm-3,829,R,ugm-3
10-01-1992,21:00,5.2,R,mgm-3,598,R,ugm-3,82,R,ugm-3,995,R,ugm-3
10-01-1992,22:00,5.1,R,mgm-3,510,R,ugm-3,73,R,ugm-3,852,R,ugm-3
10-01-1992,23:00,2.8,R,mgm-3,288,R,ugm-3,74,R,ugm-3,514,R,ugm-3
10-01-1992,24:00,2.1,R,mgm-3,201,R,ugm-3,65,R,ugm-3,372,R,ugm-3
11-01-1992,01:00,2.1,R,mgm-3,276,R,ugm-3,84,R,ugm-3,506,R,ugm-3
11-01-1992,02:00,1.6,R,mgm-3,263,R,ugm-3,117,R,ugm-3,518,R,ugm-3
11-01-1992,03:00,2.4,R,mgm-3,304,R,ugm-3,99,R,ugm-3,563,R,ugm-3
11-01-1992,04:00,3.0,R,mgm-3,340,R,ugm-3,80,R,ugm-3,600,R,ugm-3
11-01-1992,05:00,2.9,R,mgm-3,334,R,ugm-3,69,R,ugm-3,579,R,ugm-3
11-01-1992,06:00,2.8,R,mgm-3,306,R,ugm-3,69,R,ugm-3,537,R,ugm-3
11-01-1992,07:00,2.7,R,mgm-3,280,R,ugm-3,65,R,ugm-3,493,R,ugm-3
11-01-1992,08:00,2.7,R,mgm-3,381,R,ugm-3,63,R,ugm-3,646,R,ugm-3
11-01-1992,09:00,3.4,R,mgm-3,499,R,ugm-3,61,R,ugm-3,823,R,ugm-3
11-01-1992,10:00,4.1,R,mgm-3,560,R,ugm-3,84,R,ugm-3,940,R,ugm-3
11-01-1992,11:00,1.7,R,mgm-3,198,R,ugm-3,69,R,ugm-3,371,R,ugm-3
11-01-1992,12:00,1.0,R,mgm-3,96,R,ugm-3,59,R,ugm-3,206,R,ugm-3
11-01-1992,13:00,1.5,R,mgm-3,118,R,ugm-3,57,R,ugm-3,237,R,ugm-3
11-01-1992,14:00,1.4,R,mgm-3,91,R,ugm-3,52,R,ugm-3,191,R,ugm-3
11-01-1992,15:00,1.5,R,mgm-3,79,R,ugm-3,53,R,ugm-3,174,R,ugm-3
11-01-1992,16:00,2.1,R,mgm-3,131,R,ugm-3,59,R,ugm-3,260,R,ugm-3
11-01-1992,17:00,3.2,R,mgm-3,235,R,ugm-3,63,R,ugm-3,422,R,ugm-3
11-01-1992,18:00,2.7,R,mgm-3,314,R,ugm-3,61,R,ugm-3,541,R,ugm-3
11-01-1992,19:00,3.2,R,mgm-3,301,R,ugm-3,59,R,ugm-3,520,R,ugm-3
11-01-1992,20:00,3.9,R,mgm-3,336,R,ugm-3,65,R,ugm-3,579,R,ugm-3
11-01-1992,21:00,6.0,R,mgm-3,485,R,ugm-3,61,R,ugm-3,802,R,ugm-3
11-01-1992,22:00,5.7,R,mgm-3,520,R,ugm-3,65,R,ugm-3,860,R,ugm-3
11-01-1992,23:00,5.5,R,mgm-3,483,R,ugm-3,65,R,ugm-3,802,R,ugm-3
11-01-1992,24:00,6.6,R,mgm-3,608,R,ugm-3,69,R,ugm-3,997,R,ugm-3
12-01-1992,01:00,5.2,R,mgm-3,541,R,ugm-3,71,R,ugm-3,898,R,ugm-3
12-01-1992,02:00,3.1,R,mgm-3,308,R,ugm-3,50,R,ugm-3,520,R,ugm-3
12-01-1992,03:00,3.7,R,mgm-3,325,R,ugm-3,55,R,ugm-3,552,R,ugm-3
12-01-1992,04:00,4.8,R,mgm-3,365,R,ugm-3,59,R,ugm-3,617,R,ugm-3
12-01-1992,05:00,4.1,R,mgm-3,271,R,ugm-3,59,R,ugm-3,474,R,ugm-3
12-01-1992,06:00,4.2,R,mgm-3,276,R,ugm-3,50,R,ugm-3,472,R,ugm-3
12-01-1992,07:00,3.8,R,mgm-3,296,R,ugm-3,42,R,ugm-3,495,R,ugm-3
12-01-1992,08:00,3.5,R,mgm-3,304,R,ugm-3,40,R,ugm-3,504,R,ugm-3
12-01-1992,09:00,4.5,R,mgm-3,381,R,ugm-3,44,R,ugm-3,626,R,ugm-3
12-01-1992,10:00,5.6,R,mgm-3,529,R,ugm-3,48,R,ugm-3,856,R,ugm-3
12-01-1992,11:00,8.2,R,mgm-3,713,R,ugm-3,61,R,ugm-3,1150,R,ugm-3
12-01-1992,12:00,8.5,R,mgm-3,790,R,ugm-3,74,R,ugm-3,1282,R,ugm-3
12-01-1992,13:00,7.3,R,mgm-3,770,R,ugm-3,74,R,ugm-3,1251,R,ugm-3
12-01-1992,14:00,8.9,R,mgm-3,729,R,ugm-3,86,R,ugm-3,1199,R,ugm-3
12-01-1992,15:00,3.7,R,mgm-3,343,R,ugm-3,59,R,ugm-3,583,R,ugm-3
12-01-1992,16:00,2.9,R,mgm-3,234,R,ugm-3,57,R,ugm-3,414,R,ugm-3
12-01-1992,17:00,2.2,R,mgm-3,220,R,ugm-3,52,R,ugm-3,388,R,ugm-3
12-01-1992,18:00,2.7,R,mgm-3,385,R,ugm-3,44,R,ugm-3,632,R,ugm-3
12-01-1992,19:00,2.3,R,mgm-3,184,R,ugm-3,55,R,ugm-3,336,R,ugm-3
12-01-1992,20:00,2.3,R,mgm-3,150,R,ugm-3,57,R,ugm-3,287,R,ugm-3
12-01-1992,21:00,1.5,R,mgm-3,80,R,ugm-3,57,R,ugm-3,180,R,ugm-3
12-01-1992,22:00,1.4,R,mgm-3,64,R,ugm-3,57,R,ugm-3,155,R,ugm-3
12-01-1992,23:00,1.5,R,mgm-3,73,R,ugm-3,53,R,ugm-3,164,R,ugm-3
12-01-1992,24:00,1.9,R,mgm-3,158,R,ugm-3,52,R,ugm-3,292,R,ugm-3
13-01-1992,01:00,1.7,R,mgm-3,118,R,ugm-3,53,R,ugm-3,233,R,ugm-3
13-01-1992,02:00,1.0,R,mgm-3,16,R,ugm-3,55,R,ugm-3,80,R,ugm-3
13-01-1992,03:00,0.7,R,mgm-3,4,R,ugm-3,40,R,ugm-3,46,R,ugm-3
13-01-1992,04:00,0.6,R,mgm-3,15,R,ugm-3,52,R,ugm-3,74,R,ugm-3
13-01-1992,05:00,0.7,R,mgm-3,54,R,ugm-3,52,R,ugm-3,134,R,ugm-3
13-01-1992,06:00,0.9,R,mgm-3,153,R,ugm-3,55,R,ugm-3,288,R,ugm-3
13-01-1992,07:00,2.0,R,mgm-3,194,R,ugm-3,53,R,ugm-3,350,R,ugm-3
13-01-1992,08:00,2.9,R,mgm-3,486,R,ugm-3,46,R,ugm-3,789,R,ugm-3
13-01-1992,09:00,4.9,R,mgm-3,763,R,ugm-3,57,R,ugm-3,1222,R,ugm-3
13-01-1992,10:00,4.2,R,mgm-3,714,R,ugm-3,59,R,ugm-3,1150,R,ugm-3
13-01-1992,11:00,2.8,R,mgm-3,496,R,ugm-3,113,R,ugm-3,871,R,ugm-3
13-01-1992,12:00,1.9,R,mgm-3,333,R,ugm-3,82,R,ugm-3,590,R,ugm-3
13-01-1992,13:00,1.7,R,mgm-3,259,R,ugm-3,59,R,ugm-3,455,R,ugm-3
13-01-1992,14:00,1.2,R,mgm-3,176,R,ugm-3,55,R,ugm-3,325,R,ugm-3
13-01-1992,15:00,1.3,R,mgm-3,179,R,ugm-3,67,R,ugm-3,340,R,ugm-3
13-01-1992,16:00,1.5,R,mgm-3,211,R,ugm-3,76,R,ugm-3,399,R,ugm-3
13-01-1992,17:00,2.4,R,mgm-3,241,R,ugm-3,73,R,ugm-3,441,R,ugm-3
13-01-1992,18:00,4.8,R,mgm-3,446,R,ugm-3,65,R,ugm-3,747,R,ugm-3
13-01-1992,19:00,4.2,R,mgm-3,473,R,ugm-3,67,R,ugm-3,789,R,ugm-3
13-01-1992,20:00,5.3,R,mgm-3,846,R,ugm-3,74,R,ugm-3,1368,R,ugm-3
13-01-1992,21:00,5.3,R,mgm-3,701,R,ugm-3,78,R,ugm-3,1150,R,ugm-3
13-01-1992,22:00,3.6,R,mgm-3,400,R,ugm-3,76,R,ugm-3,688,R,ugm-3
13-01-1992,23:00,3.2,R,mgm-3,356,R,ugm-3,63,R,ugm-3,607,R,ugm-3
13-01-1992,24:00,3.2,R,mgm-3,376,R,ugm-3,76,R,ugm-3,651,R,ugm-3
14-01-1992,01:00,1.7,R,mgm-3,150,R,ugm-3,65,R,ugm-3,294,R,ugm-3
14-01-1992,02:00,2.7,R,mgm-3,318,R,ugm-3,55,R,ugm-3,541,R,ugm-3
14-01-1992,03:00,3.2,R,mgm-3,335,R,ugm-3,52,R,ugm-3,563,R,ugm-3
14-01-1992,04:00,2.4,R,mgm-3,280,R,ugm-3,65,R,ugm-3,493,R,ugm-3
14-01-1992,05:00,2.3,R,mgm-3,278,R,ugm-3,52,R,ugm-3,476,R,ugm-3
14-01-1992,06:00,3.5,R,mgm-3,530,R,ugm-3,74,R,ugm-3,884,R,ugm-3
14-01-1992,07:00,4.4,R,mgm-3,621,R,ugm-3,55,R,ugm-3,1005,R,ugm-3
14-01-1992,08:00,5.8,R,mgm-3,951,R,ugm-3,74,R,ugm-3,1528,R,ugm-3
14-01-1992,09:00,8.4,R,mgm-3,1106,R,ugm-3,73,R,ugm-3,1763,R,ugm-3
14-01-1992,10:00,6.8,R,mgm-3,1116,R,ugm-3,90,R,ugm-3,1795,R,ugm-3
14-01-1992,11:00,6.3,R,mgm-3,924,R,ugm-3,94,R,ugm-3,1505,R,ugm-3
14-01-1992,12:00,6.6,R,mgm-3,990,R,ugm-3,130,R,ugm-3,1643,R,ugm-3
14-01-1992,13:00,6.4,R,mgm-3,820,R,ugm-3,157,R,ugm-3,1410,R,ugm-3
14-01-1992,14:00,5.1,R,mgm-3,609,R,ugm-3,157,R,ugm-3,1087,R,ugm-3
14-01-1992,15:00,3.8,R,mgm-3,410,R,ugm-3,117,R,ugm-3,743,R,ugm-3
14-01-1992,16:00,2.9,R,mgm-3,274,R,ugm-3,71,R,ugm-3,489,R,ugm-3
14-01-1992,17:00,5.8,R,mgm-3,784,R,ugm-3,96,R,ugm-3,1293,R,ugm-3
14-01-1992,18:00,5.8,R,mgm-3,594,R,ugm-3,71,R,ugm-3,978,R,ugm-3
14-01-1992,19:00,4.9,R,mgm-3,734,R,ugm-3,63,R,ugm-3,1184,R,ugm-3
14-01-1992,20:00,6.1,R,mgm-3,995,R,ugm-3,74,R,ugm-3,1595,R,ugm-3
14-01-1992,21:00,9.2,R,mgm-3,1211,R,ugm-3,88,R,ugm-3,1939,R,ugm-3
14-01-1992,22:00,6.5,R,mgm-3,703,R,ugm-3,86,R,ugm-3,1159,R,ugm-3
14-01-1992,23:00,5.3,R,mgm-3,490,R,ugm-3,82,R,ugm-3,831,R,ugm-3
14-01-1992,24:00,4.9,R,mgm-3,514,R,ugm-3,103,R,ugm-3,888,R,ugm-3
15-01-1992,01:00,5.5,R,mgm-3,613,R,ugm-3,107,R,ugm-3,1043,R,ugm-3
15-01-1992,02:00,4.5,R,mgm-3,418,R,ugm-3,99,R,ugm-3,737,R,ugm-3
15-01-1992,03:00,2.9,R,mgm-3,310,R,ugm-3,117,R,ugm-3,590,R,ugm-3
15-01-1992,04:00,3.7,R,mgm-3,375,R,ugm-3,96,R,ugm-3,669,R,ugm-3
15-01-1992,05:00,4.2,R,mgm-3,453,R,ugm-3,92,R,ugm-3,783,R,ugm-3
15-01-1992,06:00,2.6,R,mgm-3,324,R,ugm-3,88,R,ugm-3,583,R,ugm-3
15-01-1992,07:00,0.7,R,mgm-3,124,R,ugm-3,65,R,ugm-3,254,R,ugm-3
15-01-1992,08:00,1.2,R,mgm-3,289,R,ugm-3,94,R,ugm-3,535,R,ugm-3
15-01-1992,09:00,1.9,R,mgm-3,316,R,ugm-3,59,R,ugm-3,542,R,ugm-3
15-01-1992,10:00,1.5,R,mgm-3,284,R,ugm-3,55,R,ugm-3,489,R,ugm-3
15-01-1992,11:00,1.3,R,mgm-3,248,R,ugm-3,59,R,ugm-3,437,R,ugm-3
15-01-1992,12:00,1.3,R,mgm-3,225,R,ugm-3,52,R,ugm-3,395,R,ugm-3
15-01-1992,13:00,1.5,R,mgm-3,206,R,ugm-3,48,R,ugm-3,363,R,ugm-3
15-01-1992,14:00,1.7,R,mgm-3,169,R,ugm-3,57,R,ugm-3,315,R,ugm-3
15-01-1992,15:00,2.1,R,mgm-3,210,R,ugm-3,67,R,ugm-3,388,R,ugm-3
15-01-1992,16:00,3.5,R,mgm-3,705,R,ugm-3,65,R,ugm-3,1142,R,ugm-3
15-01-1992,17:00,5.1,R,mgm-3,870,R,ugm-3,61,R,ugm-3,1390,R,ugm-3
15-01-1992,18:00,7.1,R,mgm-3,1024,R,ugm-3,65,R,ugm-3,1629,R,ugm-3
15-01-1992,19:00,9.4,R,mgm-3,1253,R,ugm-3,84,R,ugm-3,1998,R,ugm-3
15-01-1992,20:00,6.6,R,mgm-3,808,R,ugm-3,71,R,ugm-3,1305,R,ugm-3
15-01-1992,21:00,6.4,R,mgm-3,824,R,ugm-3,84,R,ugm-3,1343,R,ugm-3
15-01-1992,22:00,5.9,R,mgm-3,673,R,ugm-3,80,R,ugm-3,1108,R,ugm-3
15-01-1992,23:00,5.5,R,mgm-3,614,R,ugm-3,76,R,ugm-3,1014,R,ugm-3
15-01-1992,24:00,2.3,R,mgm-3,238,R,ugm-3,52,R,ugm-3,414,R,ugm-3
16-01-1992,01:00,2.3,R,mgm-3,208,R,ugm-3,55,R,ugm-3,372,R,ugm-3
16-01-1992,02:00,2.3,R,mgm-3,231,R,ugm-3,59,R,ugm-3,413,R,ugm-3
16-01-1992,03:00,2.3,R,mgm-3,230,R,ugm-3,57,R,ugm-3,409,R,ugm-3
16-01-1992,04:00,2.3,R,mgm-3,261,R,ugm-3,61,R,ugm-3,460,R,ugm-3
16-01-1992,05:00,2.3,R,mgm-3,298,R,ugm-3,76,R,ugm-3,531,R,ugm-3
16-01-1992,06:00,1.5,R,mgm-3,124,R,ugm-3,44,R,ugm-3,233,R,ugm-3
16-01-1992,07:00,0.7,R,mgm-3,60,R,ugm-3,36,R,ugm-3,128,R,ugm-3
16-01-1992,08:00,0.9,R,mgm-3,91,R,ugm-3,34,R,ugm-3,174,R,ugm-3
16-01-1992,09:00,1.3,R,mgm-3,176,R,ugm-3,38,R,ugm-3,308,R,ugm-3
16-01-1992,10:00,1.3,R,mgm-3,216,R,ugm-3,44,R,ugm-3,374,R,ugm-3
16-01-1992,11:00,1.0,R,mgm-3,85,R,ugm-3,38,R,ugm-3,168,R,ugm-3
16-01-1992,12:00,0.7,R,mgm-3,73,R,ugm-3,40,R,ugm-3,151,R,ugm-3
16-01-1992,13:00,0.7,R,mgm-3,63,R,ugm-3,38,R,ugm-3,134,R,ugm-3
16-01-1992,14:00,0.8,R,mgm-3,74,R,ugm-3,38,R,ugm-3,151,R,ugm-3
16-01-1992,15:00,0.8,R,mgm-3,75,R,ugm-3,42,R,ugm-3,157,R,ugm-3